| time (UTC) | temp F | wind direction | speed MPH | gust MPH | rain 1hr in | rain 24hr in | rain mn in | humidity % | barometer mb |
| 20260906012524 | 68 | 0 | 0.0 | 0.0 | 0.00 | 0.17 | 0.17 | 98 | 1017.3 |
| 20260906012029 | 68 | 0 | 0.0 | 0.0 | 0.00 | 0.17 | 0.17 | 98 | 1017.3 |
| 20260906011610 | 68 | 0 | 0.0 | 0.0 | 0.00 | 0.17 | 0.17 | 98 | 1017.3 |
| 20260906011024 | 68 | 0 | 0.0 | 0.0 | 0.00 | 0.17 | 0.17 | 98 | 1017.2 |
| 20260906010525 | 68 | 0 | 0.0 | 0.0 | 0.00 | 0.17 | 0.17 | 98 | 1017.1 |
| 20260906010057 | 68 | 0 | 0.0 | 0.0 | 0.00 | 0.17 | 0.17 | 98 | 1017.1 |
| 20260906005526 | 68 | 0 | 0.0 | 0.0 | 0.00 | 0.17 | 0.17 | 98 | 1017.1 |
| 20260906005032 | 68 | 173 | 0.0 | 1.0 | 0.00 | 0.17 | 0.17 | 98 | 1016.9 |
| 20260906004550 | 68 | 0 | 0.0 | 1.0 | 0.00 | 0.17 | 0.17 | 98 | 1017.0 |
| 20260906004028 | 68 | 0 | 0.0 | 1.0 | 0.00 | 0.17 | 0.17 | 97 | 1017.1 |
| 20260906003529 | 68 | 0 | 0.0 | 1.0 | 0.00 | 0.17 | 0.17 | 97 | 1017.1 |
| 20260906003100 | 68 | 0 | 0.0 | 0.0 | 0.00 | 0.17 | 0.17 | 97 | 1016.9 |
| 20260906002525 | 68 | 0 | 0.0 | 0.0 | 0.00 | 0.17 | 0.17 | 97 | 1016.9 |
| 20260906002027 | 68 | 0 | 0.0 | 1.0 | 0.00 | 0.17 | 0.17 | 97 | 1016.8 |
| 20260906001603 | 68 | 0 | 0.0 | 1.0 | 0.00 | 0.17 | 0.17 | 97 | 1016.8 |
| 20260906001027 | 68 | 0 | 0.0 | 1.0 | 0.00 | 0.17 | 0.17 | 97 | 1016.7 |
| 20260906000530 | 68 | 0 | 0.0 | 1.0 | 0.01 | 0.17 | 0.17 | 97 | 1016.9 |
| 20260906000056 | 69 | 0 | 0.0 | 1.0 | 0.01 | 0.17 | 0.17 | 97 | 1016.9 |
| 20260905235524 | 68 | 112 | 0.0 | 1.0 | 0.01 | 0.17 | 0.17 | 97 | 1017.0 |
| 20260905235026 | 69 | 0 | 0.0 | 1.0 | 0.01 | 0.17 | 0.17 | 97 | 1016.8 |
| 20260905234551 | 69 | 0 | 0.0 | 1.0 | 0.03 | 0.17 | 0.17 | 96 | 1017.0 |
| 20260905234028 | 69 | 112 | 0.0 | 1.0 | 0.03 | 0.17 | 0.17 | 96 | 1017.0 |
| 20260905233527 | 69 | 111 | 0.0 | 1.0 | 0.03 | 0.17 | 0.17 | 96 | 1017.1 |
| 20260905233104 | 69 | 0 | 0.0 | 0.0 | 0.03 | 0.17 | 0.17 | 96 | 1017.1 |
| 20260905232526 | 69 | 0 | 0.0 | 1.0 | 0.03 | 0.17 | 0.17 | 96 | 1017.1 |
| 20260905232025 | 69 | 0 | 0.0 | 1.0 | 0.03 | 0.17 | 0.17 | 96 | 1017.0 |
| 20260905231553 | 69 | 0 | 0.0 | 1.0 | 0.03 | 0.17 | 0.17 | 95 | 1017.0 |
| 20260905231023 | 69 | 108 | 1.0 | 2.0 | 0.03 | 0.17 | 0.17 | 95 | 1017.0 |
| 20260905230533 | 70 | 117 | 1.0 | 2.0 | 0.02 | 0.16 | 0.16 | 94 | 1016.8 |
| 20260905230057 | 70 | 98 | 1.0 | 2.0 | 0.02 | 0.16 | 0.16 | 93 | 1017.1 |
| 20260905225526 | 71 | 94 | 0.0 | 2.0 | 0.02 | 0.16 | 0.16 | 91 | 1017.0 |
| 20260905225026 | 72 | 94 | 0.0 | 2.0 | 0.02 | 0.16 | 0.16 | 90 | 1017.1 |
| 20260905224607 | 72 | 122 | 0.0 | 1.0 | 0.00 | 0.14 | 0.14 | 88 | 1017.1 |
| 20260905224025 | 72 | 0 | 0.0 | 1.0 | 0.00 | 0.14 | 0.14 | 87 | 1017.1 |
| 20260905223529 | 73 | 124 | 0.0 | 1.0 | 0.00 | 0.14 | 0.14 | 87 | 1016.8 |
| 20260905223048 | 74 | 47 | 0.0 | 2.0 | 0.00 | 0.14 | 0.14 | 86 | 1016.7 |
| 20260905222531 | 74 | 0 | 0.0 | 2.0 | 0.00 | 0.14 | 0.14 | 86 | 1016.6 |
| 20260905222031 | 75 | 93 | 0.0 | 1.0 | 0.00 | 0.14 | 0.14 | 86 | 1016.5 |
| 20260905221546 | 75 | 0 | 0.0 | 1.0 | 0.00 | 0.14 | 0.14 | 86 | 1016.4 |
| 20260905221030 | 75 | 0 | 0.0 | 1.0 | 0.00 | 0.14 | 0.14 | 86 | 1016.4 |
| 20260905220525 | 75 | 0 | 0.0 | 2.0 | 0.00 | 0.14 | 0.14 | 86 | 1016.2 |
| 20260905220053 | 75 | 0 | 0.0 | 2.0 | 0.00 | 0.14 | 0.14 | 87 | 1016.1 |
| 20260905215523 | 76 | 104 | 1.0 | 2.0 | 0.00 | 0.14 | 0.14 | 86 | 1016.0 |
| 20260905215024 | 76 | 0 | 0.0 | 0.0 | 0.00 | 0.14 | 0.14 | 84 | 1015.8 |
| 20260905214548 | 77 | 0 | 0.0 | 2.0 | 0.00 | 0.14 | 0.14 | 83 | 1015.8 |
| 20260905214025 | 77 | 310 | 0.0 | 2.0 | 0.00 | 0.14 | 0.14 | 82 | 1015.8 |
| 20260905213524 | 77 | 295 | 0.0 | 1.0 | 0.00 | 0.14 | 0.14 | 85 | 1015.8 |
| 20260905213057 | 77 | 0 | 0.0 | 1.0 | 0.00 | 0.14 | 0.14 | 84 | 1015.6 |
| 20260905212527 | 77 | 300 | 0.0 | 1.0 | 0.00 | 0.14 | 0.14 | 84 | 1015.7 |
| 20260905212029 | 77 | 300 | 0.0 | 1.0 | 0.00 | 0.14 | 0.14 | 85 | 1015.7 |
| 20260905211547 | 77 | 143 | 0.0 | 1.0 | 0.00 | 0.14 | 0.14 | 85 | 1015.7 |
| 20260905211025 | 77 | 0 | 0.0 | 1.0 | 0.00 | 0.14 | 0.14 | 85 | 1015.6 |
| 20260905210527 | 77 | 143 | 0.0 | 1.0 | 0.00 | 0.14 | 0.14 | 84 | 1015.7 |
| 20260905210056 | 77 | 0 | 0.0 | 1.0 | 0.00 | 0.14 | 0.14 | 86 | 1015.7 |
| 20260905205525 | 76 | 0 | 0.0 | 1.0 | 0.00 | 0.14 | 0.14 | 85 | 1015.7 |
| 20260905205024 | 76 | 0 | 0.0 | 0.0 | 0.00 | 0.14 | 0.14 | 86 | 1015.9 |
| 20260905204556 | 76 | 0 | 0.0 | 1.0 | 0.00 | 0.14 | 0.14 | 85 | 1015.8 |
| 20260905204025 | 75 | 0 | 0.0 | 1.0 | 0.00 | 0.14 | 0.14 | 86 | 1015.9 |
| 20260905203524 | 75 | 0 | 0.0 | 1.0 | 0.00 | 0.14 | 0.14 | 86 | 1015.9 |
| 20260905203052 | 75 | 123 | 0.0 | 1.0 | 0.00 | 0.14 | 0.14 | 87 | 1016.0 |
| 20260905202526 | 75 | 0 | 0.0 | 1.0 | 0.00 | 0.14 | 0.14 | 85 | 1016.1 |
| 20260905202027 | 76 | 0 | 0.0 | 1.0 | 0.00 | 0.14 | 0.14 | 85 | 1016.2 |
| 20260905201549 | 76 | 0 | 0.0 | 1.0 | 0.00 | 0.14 | 0.14 | 85 | 1016.2 |
| 20260905201025 | 76 | 0 | 0.0 | 1.0 | 0.00 | 0.14 | 0.14 | 85 | 1016.2 |
| 20260905200526 | 76 | 108 | 0.0 | 1.0 | 0.00 | 0.14 | 0.14 | 84 | 1016.2 |
| 20260905200050 | 77 | 110 | 0.0 | 1.0 | 0.00 | 0.14 | 0.14 | 83 | 1016.2 |
| 20260905195526 | 78 | 103 | 0.0 | 1.0 | 0.00 | 0.24 | 0.14 | 81 | 1016.3 |
| 20260905195028 | 78 | 0 | 0.0 | 1.0 | 0.00 | 0.24 | 0.14 | 82 | 1016.4 |
| 20260905194553 | 79 | 0 | 0.0 | 1.0 | 0.00 | 0.24 | 0.14 | 85 | 1016.4 |
| 20260905194026 | 78 | 0 | 0.0 | 1.0 | 0.00 | 0.24 | 0.14 | 86 | 1016.3 |
| 20260905193524 | 77 | 0 | 0.0 | 1.0 | 0.00 | 0.24 | 0.14 | 89 | 1016.4 |
| 20260905193048 | 76 | 0 | 0.0 | 0.0 | 0.00 | 0.24 | 0.14 | 88 | 1016.6 |
| 20260905192526 | 76 | 0 | 0.0 | 1.0 | 0.00 | 0.24 | 0.14 | 89 | 1016.7 |
| 20260905192024 | 76 | 0 | 0.0 | 1.0 | 0.00 | 0.24 | 0.14 | 89 | 1016.7 |
| 20260905191549 | 75 | 101 | 0.0 | 1.0 | 0.00 | 0.24 | 0.14 | 90 | 1016.7 |
| 20260905191026 | 75 | 0 | 0.0 | 1.0 | 0.00 | 0.24 | 0.14 | 91 | 1016.9 |
| 20260905190529 | 75 | 98 | 0.0 | 1.0 | 0.00 | 0.24 | 0.14 | 93 | 1016.9 |
| 20260905190120 | 75 | 98 | 0.0 | 1.0 | 0.00 | 0.24 | 0.14 | 92 | 1016.7 |
| 20260905185525 | 75 | 0 | 0.0 | 1.0 | 0.00 | 0.24 | 0.14 | 93 | 1016.9 |
| 20260905185025 | 75 | 0 | 0.0 | 1.0 | 0.00 | 0.24 | 0.14 | 93 | 1017.0 |
| 20260905184613 | 75 | 0 | 0.0 | 1.0 | 0.00 | 0.24 | 0.14 | 92 | 1017.1 |
| 20260905184026 | 75 | 0 | 0.0 | 1.0 | 0.00 | 0.24 | 0.14 | 91 | 1017.1 |
| 20260905183528 | 75 | 0 | 0.0 | 1.0 | 0.00 | 0.24 | 0.14 | 90 | 1017.3 |
| 20260905183049 | 75 | 0 | 0.0 | 1.0 | 0.00 | 0.24 | 0.14 | 90 | 1017.2 |
| 20260905182527 | 74 | 0 | 0.0 | 1.0 | 0.00 | 0.24 | 0.14 | 92 | 1017.2 |
| 20260905182026 | 74 | 0 | 0.0 | 2.0 | 0.00 | 0.24 | 0.14 | 92 | 1017.2 |
| 20260905181551 | 75 | 0 | 0.0 | 2.0 | 0.00 | 0.24 | 0.14 | 92 | 1017.3 |
| 20260905181027 | 75 | 100 | 0.0 | 2.0 | 0.00 | 0.24 | 0.14 | 91 | 1017.2 |
| 20260905180648 | 75 | 0 | 0.0 | 2.0 | 0.00 | 0.24 | 0.14 | 90 | 1017.2 |
| 20260905180058 | 74 | 265 | 0.0 | 1.0 | 0.00 | 0.24 | 0.14 | 92 | 1017.3 |
| 20260905175533 | 74 | 241 | 0.0 | 2.0 | 0.00 | 0.66 | 0.14 | 93 | 1017.3 |
| 20260905175026 | 74 | 0 | 0.0 | 2.0 | 0.00 | 0.66 | 0.14 | 94 | 1017.3 |
| 20260905174556 | 73 | 0 | 1.0 | 2.0 | 0.00 | 0.66 | 0.14 | 96 | 1017.4 |
| 20260905174026 | 73 | 114 | 0.0 | 1.0 | 0.00 | 0.66 | 0.14 | 96 | 1017.3 |
| 20260905173525 | 72 | 0 | 0.0 | 1.0 | 0.00 | 0.66 | 0.14 | 98 | 1017.6 |
| 20260905173048 | 72 | 0 | 0.0 | 1.0 | 0.00 | 0.66 | 0.14 | 98 | 1017.6 |
| 20260905172526 | 72 | 0 | 0.0 | 1.0 | 0.00 | 0.66 | 0.14 | 99 | 1017.6 |
| 20260905172025 | 72 | 0 | 0.0 | 1.0 | 0.00 | 0.66 | 0.14 | 99 | 1017.7 |
| 20260905171556 | 71 | 0 | 0.0 | 0.0 | 0.00 | 0.66 | 0.14 | 99 | 1017.9 |
| 20260905171024 | 71 | 0 | 0.0 | 0.0 | 0.00 | 0.66 | 0.14 | 99 | 1017.7 |
| 20260905170524 | 71 | 0 | 0.0 | 0.0 | 0.00 | 0.66 | 0.14 | 99 | 1017.9 |
| 20260905165523 | 71 | 0 | 0.0 | 0.0 | 0.00 | 0.66 | 0.14 | 99 | 1018.1 |
| 20260905165028 | 71 | 162 | 0.0 | 0.0 | 0.00 | 0.66 | 0.14 | 99 | 1018.1 |
| 20260905164551 | 71 | 0 | 0.0 | 0.0 | 0.00 | 0.66 | 0.14 | 99 | 1018.2 |
| 20260905164027 | 71 | 0 | 0.0 | 0.0 | 0.00 | 0.66 | 0.14 | 99 | 1018.2 |
| 20260905163526 | 71 | 0 | 0.0 | 0.0 | 0.01 | 0.66 | 0.14 | 99 | 1018.3 |
| 20260905163102 | 71 | 0 | 0.0 | 0.0 | 0.01 | 0.66 | 0.14 | 99 | 1018.2 |
| 20260905162524 | 70 | 0 | 0.0 | 0.0 | 0.01 | 0.66 | 0.14 | 99 | 1018.1 |
| 20260905162025 | 70 | 0 | 0.0 | 0.0 | 0.01 | 0.66 | 0.14 | 99 | 1018.2 |
| 20260905161556 | 70 | 0 | 0.0 | 0.0 | 0.01 | 0.66 | 0.14 | 99 | 1018.3 |
| 20260905161024 | 70 | 0 | 0.0 | 0.0 | 0.01 | 0.66 | 0.14 | 99 | 1018.4 |
| 20260905160524 | 70 | 0 | 0.0 | 0.0 | 0.01 | 0.66 | 0.14 | 99 | 1018.3 |
| 20260905160054 | 70 | 0 | 0.0 | 0.0 | 0.01 | 0.66 | 0.14 | 99 | 1018.3 |
| 20260905155525 | 70 | 0 | 0.0 | 0.0 | 0.01 | 0.66 | 0.14 | 99 | 1018.3 |
| 20260905155024 | 70 | 0 | 0.0 | 0.0 | 0.01 | 0.66 | 0.14 | 99 | 1018.2 |
| 20260905154547 | 70 | 0 | 0.0 | 0.0 | 0.01 | 0.66 | 0.14 | 99 | 1018.1 |
| 20260905154027 | 70 | 0 | 0.0 | 0.0 | 0.01 | 0.66 | 0.14 | 99 | 1018.2 |
| 20260905153526 | 70 | 0 | 0.0 | 0.0 | 0.00 | 0.65 | 0.13 | 99 | 1018.1 |
| 20260905153057 | 70 | 0 | 0.0 | 0.0 | 0.00 | 0.65 | 0.13 | 99 | 1018.1 |
| 20260905152527 | 70 | 165 | 0.0 | 0.0 | 0.00 | 0.65 | 0.13 | 99 | 1018.1 |
| 20260905152026 | 70 | 0 | 0.0 | 0.0 | 0.00 | 0.65 | 0.13 | 99 | 1018.2 |
| 20260905151554 | 70 | 0 | 0.0 | 0.0 | 0.00 | 0.65 | 0.13 | 99 | 1018.1 |
| 20260905151032 | 70 | 0 | 0.0 | 0.0 | 0.00 | 0.65 | 0.13 | 99 | 1018.0 |
| 20260905150528 | 70 | 0 | 0.0 | 0.0 | 0.00 | 0.65 | 0.13 | 99 | 1018.1 |
| 20260905150049 | 70 | 0 | 0.0 | 0.0 | 0.00 | 0.65 | 0.13 | 99 | 1018.0 |
| 20260905145526 | 70 | 0 | 0.0 | 0.0 | 0.00 | 0.65 | 0.13 | 99 | 1018.0 |
| 20260905145026 | 70 | 0 | 0.0 | 0.0 | 0.00 | 0.65 | 0.13 | 99 | 1018.0 |
| 20260905144546 | 70 | 0 | 0.0 | 0.0 | 0.01 | 0.65 | 0.13 | 99 | 1017.9 |
| 20260905144026 | 69 | 0 | 0.0 | 0.0 | 0.01 | 0.65 | 0.13 | 99 | 1017.7 |
| 20260905143526 | 69 | 0 | 0.0 | 0.0 | 0.01 | 0.65 | 0.13 | 99 | 1017.8 |
| 20260905143056 | 69 | 0 | 0.0 | 0.0 | 0.01 | 0.65 | 0.13 | 99 | 1017.9 |
| 20260905142524 | 69 | 0 | 0.0 | 0.0 | 0.01 | 0.65 | 0.13 | 99 | 1017.8 |
| 20260905142028 | 69 | 0 | 0.0 | 0.0 | 0.01 | 0.65 | 0.13 | 99 | 1017.9 |
| 20260905141619 | 69 | 0 | 0.0 | 0.0 | 0.01 | 0.65 | 0.13 | 99 | 1018.0 |
| 20260905141024 | 69 | 0 | 0.0 | 0.0 | 0.01 | 0.65 | 0.13 | 99 | 1017.9 |
| 20260905140526 | 68 | 0 | 0.0 | 0.0 | 0.01 | 0.65 | 0.13 | 99 | 1017.9 |
| 20260905140053 | 68 | 0 | 0.0 | 0.0 | 0.01 | 0.65 | 0.13 | 99 | 1017.8 |
| 20260905135525 | 68 | 0 | 0.0 | 0.0 | 0.01 | 0.65 | 0.13 | 99 | 1018.0 |
| 20260905135025 | 68 | 0 | 0.0 | 0.0 | 0.01 | 0.65 | 0.13 | 99 | 1018.0 |
| 20260905134546 | 68 | 0 | 0.0 | 0.0 | 0.00 | 0.64 | 0.12 | 99 | 1018.2 |
| 20260905134026 | 68 | 0 | 0.0 | 0.0 | 0.01 | 0.64 | 0.12 | 99 | 1018.0 |
| 20260905133526 | 68 | 0 | 0.0 | 0.0 | 0.02 | 0.64 | 0.12 | 99 | 1018.0 |
| 20260905133053 | 68 | 0 | 0.0 | 0.0 | 0.06 | 0.64 | 0.12 | 99 | 1018.1 |
| 20260905132526 | 68 | 0 | 0.0 | 0.0 | 0.06 | 0.64 | 0.12 | 99 | 1018.2 |
| 20260905132027 | 68 | 0 | 0.0 | 1.0 | 0.06 | 0.64 | 0.12 | 99 | 1018.2 |
| 20260905131607 | 68 | 0 | 0.0 | 1.0 | 0.06 | 0.64 | 0.12 | 99 | 1018.3 |
| 20260905131026 | 68 | 0 | 0.0 | 1.0 | 0.06 | 0.64 | 0.12 | 99 | 1018.2 |
| 20260905130527 | 68 | 0 | 0.0 | 1.0 | 0.06 | 0.64 | 0.12 | 99 | 1018.2 |
| 20260905130050 | 68 | 243 | 0.0 | 1.0 | 0.06 | 0.64 | 0.12 | 99 | 1018.2 |
| 20260905125525 | 68 | 122 | 0.0 | 1.0 | 0.06 | 0.64 | 0.12 | 99 | 1017.9 |
| 20260905125025 | 68 | 0 | 0.0 | 3.0 | 0.06 | 0.64 | 0.12 | 99 | 1018.1 |
| 20260905124550 | 68 | 148 | 0.0 | 3.0 | 0.06 | 0.64 | 0.12 | 99 | 1018.1 |
| 20260905124027 | 69 | 56 | 1.0 | 3.0 | 0.05 | 0.63 | 0.11 | 99 | 1018.2 |
| 20260905123526 | 69 | 310 | 1.0 | 3.0 | 0.04 | 0.62 | 0.10 | 99 | 1018.5 |
| 20260905123102 | 69 | 31 | 2.0 | 3.0 | 0.00 | 0.58 | 0.06 | 99 | 1018.5 |
| 20260905122531 | 69 | 0 | 0.0 | 1.0 | 0.00 | 0.58 | 0.06 | 99 | 1018.0 |
| 20260905122025 | 69 | 0 | 0.0 | 0.0 | 0.00 | 0.58 | 0.06 | 99 | 1017.8 |
| 20260905121549 | 69 | 0 | 0.0 | 0.0 | 0.00 | 0.58 | 0.06 | 99 | 1017.8 |
| 20260905121027 | 69 | 0 | 0.0 | 0.0 | 0.00 | 0.58 | 0.06 | 99 | 1017.6 |
| 20260905120532 | 69 | 0 | 0.0 | 0.0 | 0.00 | 0.58 | 0.06 | 99 | 1017.8 |
| 20260905120058 | 69 | 0 | 0.0 | 0.0 | 0.00 | 0.58 | 0.06 | 99 | 1017.8 |
| 20260905115527 | 69 | 0 | 0.0 | 0.0 | 0.00 | 0.58 | 0.06 | 99 | 1017.8 |
| 20260905115026 | 69 | 0 | 0.0 | 0.0 | 0.00 | 0.58 | 0.06 | 99 | 1017.7 |
| 20260905114551 | 69 | 0 | 0.0 | 0.0 | 0.00 | 0.58 | 0.06 | 99 | 1017.5 |
| 20260905114026 | 69 | 0 | 0.0 | 0.0 | 0.00 | 0.58 | 0.06 | 99 | 1017.4 |
| 20260905113526 | 69 | 0 | 0.0 | 0.0 | 0.00 | 0.58 | 0.06 | 99 | 1017.3 |
| 20260905113045 | 69 | 0 | 0.0 | 0.0 | 0.00 | 0.58 | 0.06 | 99 | 1017.1 |
| 20260905112527 | 69 | 0 | 0.0 | 0.0 | 0.00 | 0.58 | 0.06 | 99 | 1016.9 |
| 20260905112025 | 69 | 0 | 0.0 | 0.0 | 0.00 | 0.58 | 0.06 | 99 | 1016.8 |
| 20260905111602 | 69 | 0 | 0.0 | 0.0 | 0.00 | 0.58 | 0.06 | 99 | 1016.7 |
| 20260905111028 | 69 | 0 | 0.0 | 0.0 | 0.00 | 0.58 | 0.06 | 99 | 1016.9 |
| 20260905110526 | 69 | 0 | 0.0 | 0.0 | 0.00 | 0.58 | 0.06 | 99 | 1017.0 |
| 20260905110053 | 69 | 0 | 0.0 | 0.0 | 0.00 | 0.58 | 0.06 | 99 | 1017.1 |
| 20260905105528 | 69 | 0 | 0.0 | 0.0 | 0.00 | 0.58 | 0.06 | 99 | 1017.1 |
| 20260905105026 | 69 | 0 | 0.0 | 0.0 | 0.00 | 0.58 | 0.06 | 99 | 1016.9 |
| 20260905104548 | 69 | 0 | 0.0 | 0.0 | 0.00 | 0.58 | 0.06 | 99 | 1016.7 |
| 20260905104028 | 68 | 0 | 0.0 | 0.0 | 0.00 | 0.58 | 0.06 | 99 | 1016.6 |
| 20260905103525 | 68 | 0 | 0.0 | 0.0 | 0.00 | 0.58 | 0.06 | 99 | 1016.7 |
| 20260905103045 | 68 | 0 | 0.0 | 0.0 | 0.00 | 0.58 | 0.06 | 99 | 1016.7 |
| 20260905102527 | 68 | 0 | 0.0 | 0.0 | 0.00 | 0.58 | 0.06 | 99 | 1016.9 |
| 20260905102026 | 68 | 0 | 0.0 | 0.0 | 0.00 | 0.58 | 0.06 | 99 | 1016.6 |
| 20260905101619 | 68 | 0 | 0.0 | 0.0 | 0.00 | 0.58 | 0.06 | 99 | 1016.7 |
| 20260905101025 | 68 | 0 | 0.0 | 0.0 | 0.00 | 0.58 | 0.06 | 99 | 1016.6 |
| 20260905100528 | 68 | 0 | 0.0 | 0.0 | 0.00 | 0.58 | 0.06 | 99 | 1016.6 |
| 20260905100053 | 68 | 0 | 0.0 | 0.0 | 0.01 | 0.58 | 0.06 | 99 | 1016.6 |
| 20260905095528 | 68 | 0 | 0.0 | 0.0 | 0.01 | 0.58 | 0.06 | 99 | 1016.6 |
| 20260905095028 | 68 | 0 | 0.0 | 0.0 | 0.01 | 0.58 | 0.06 | 99 | 1016.8 |
| 20260905094549 | 68 | 0 | 0.0 | 0.0 | 0.01 | 0.58 | 0.06 | 99 | 1016.7 |
| 20260905094026 | 68 | 0 | 0.0 | 0.0 | 0.01 | 0.58 | 0.06 | 99 | 1016.7 |
| 20260905093524 | 68 | 0 | 0.0 | 1.0 | 0.01 | 0.58 | 0.06 | 99 | 1016.9 |
| 20260905093046 | 68 | 0 | 0.0 | 1.0 | 0.01 | 0.58 | 0.06 | 99 | 1017.0 |
| 20260905092526 | 68 | 0 | 0.0 | 0.0 | 0.01 | 0.58 | 0.06 | 99 | 1016.9 |
| 20260905092027 | 68 | 0 | 0.0 | 0.0 | 0.01 | 0.58 | 0.06 | 99 | 1016.8 |
| 20260905091547 | 68 | 0 | 0.0 | 0.0 | 0.01 | 0.58 | 0.06 | 99 | 1016.5 |
| 20260905091026 | 68 | 0 | 0.0 | 0.0 | 0.01 | 0.58 | 0.06 | 99 | 1016.4 |
| 20260905090526 | 68 | 0 | 0.0 | 1.0 | 0.00 | 0.57 | 0.05 | 99 | 1016.3 |
| 20260905090053 | 68 | 0 | 0.0 | 1.0 | 0.00 | 0.57 | 0.05 | 99 | 1016.3 |
| 20260905085523 | 68 | 0 | 0.0 | 0.0 | 0.00 | 0.57 | 0.05 | 99 | 1016.7 |
| 20260905085027 | 68 | 0 | 0.0 | 0.0 | 0.00 | 0.57 | 0.05 | 99 | 1017.1 |
| 20260905084604 | 68 | 0 | 0.0 | 0.0 | 0.00 | 0.57 | 0.05 | 99 | 1016.8 |
| 20260905084025 | 68 | 0 | 0.0 | 1.0 | 0.05 | 0.57 | 0.05 | 99 | 1016.9 |
| 20260905083527 | 68 | 0 | 0.0 | 1.0 | 0.05 | 0.57 | 0.05 | 99 | 1016.8 |
| 20260905083056 | 68 | 0 | 0.0 | 0.0 | 0.05 | 0.57 | 0.05 | 99 | 1016.8 |
| 20260905082526 | 68 | 0 | 0.0 | 1.0 | 0.05 | 0.57 | 0.05 | 99 | 1016.7 |
| 20260905082027 | 68 | 0 | 0.0 | 1.0 | 0.05 | 0.57 | 0.05 | 99 | 1016.7 |
| 20260905081557 | 68 | 136 | 0.0 | 1.0 | 0.05 | 0.57 | 0.05 | 99 | 1016.9 |
| 20260905081029 | 68 | 0 | 0.0 | 1.0 | 0.05 | 0.57 | 0.05 | 99 | 1017.0 |
| 20260905080526 | 68 | 0 | 0.0 | 1.0 | 0.05 | 0.57 | 0.05 | 99 | 1016.8 |
| 20260905080045 | 68 | 0 | 0.0 | 1.0 | 0.05 | 0.57 | 0.05 | 99 | 1016.7 |
| 20260905075530 | 68 | 0 | 0.0 | 1.0 | 0.05 | 0.57 | 0.05 | 99 | 1017.0 |
| 20260905075028 | 68 | 0 | 0.0 | 1.0 | 0.05 | 0.57 | 0.05 | 99 | 1017.2 |
| 20260905074559 | 68 | 143 | 0.0 | 1.0 | 0.05 | 0.57 | 0.05 | 99 | 1017.1 |
| 20260905074029 | 68 | 0 | 0.0 | 0.0 | 0.00 | 0.52 | 0.00 | 99 | 1017.5 |
| 20260905073528 | 68 | 0 | 0.0 | 0.0 | 0.00 | 0.52 | 0.00 | 99 | 1017.1 |
| 20260905073052 | 68 | 0 | 0.0 | 0.0 | 0.00 | 0.52 | 0.00 | 99 | 1017.1 |
| 20260905072523 | 68 | 0 | 0.0 | 0.0 | 0.00 | 0.52 | 0.00 | 99 | 1017.2 |
| 20260905072023 | 68 | 0 | 0.0 | 0.0 | 0.00 | 0.52 | 0.00 | 99 | 1017.3 |
| 20260905071547 | 68 | 0 | 0.0 | 0.0 | 0.00 | 0.52 | 0.00 | 99 | 1017.3 |
| 20260905071024 | 68 | 0 | 0.0 | 0.0 | 0.00 | 0.52 | 0.00 | 99 | 1017.4 |
| 20260905070524 | 68 | 0 | 0.0 | 0.0 | 0.00 | 0.52 | 0.00 | 99 | 1017.4 |
| 20260905070047 | 68 | 0 | 0.0 | 0.0 | 0.00 | 0.52 | 0.00 | 99 | 1017.5 |
| 20260905065526 | 68 | 0 | 0.0 | 0.0 | 0.00 | 0.52 | 0.00 | 99 | 1017.4 |
| 20260905065025 | 68 | 0 | 0.0 | 0.0 | 0.00 | 0.52 | 0.00 | 99 | 1017.4 |
| 20260905064559 | 69 | 0 | 0.0 | 0.0 | 0.00 | 0.52 | 0.00 | 99 | 1017.6 |
| 20260905064027 | 69 | 0 | 0.0 | 0.0 | 0.00 | 0.52 | 0.00 | 99 | 1017.7 |
| 20260905063526 | 69 | 0 | 0.0 | 0.0 | 0.00 | 0.52 | 0.00 | 99 | 1017.7 |
| 20260905063054 | 69 | 0 | 0.0 | 0.0 | 0.00 | 0.52 | 0.00 | 99 | 1018.0 |
| 20260905062529 | 69 | 0 | 0.0 | 0.0 | 0.00 | 0.52 | 0.00 | 99 | 1018.1 |
| 20260905062022 | 69 | 0 | 0.0 | 0.0 | 0.00 | 0.52 | 0.00 | 99 | 1018.3 |
| 20260905061549 | 69 | 0 | 0.0 | 0.0 | 0.00 | 0.52 | 0.00 | 99 | 1018.3 |
| 20260905061024 | 69 | 0 | 0.0 | 0.0 | 0.00 | 0.52 | 0.00 | 99 | 1018.2 |
| 20260905060527 | 69 | 0 | 0.0 | 0.0 | 0.00 | 0.52 | 0.00 | 99 | 1018.4 |
| 20260905060100 | 69 | 0 | 0.0 | 0.0 | 0.00 | 0.52 | 0.00 | 99 | 1018.4 |
| 20260905055531 | 69 | 0 | 0.0 | 0.0 | 0.00 | 0.52 | 0.00 | 99 | 1018.3 |
| 20260905055025 | 69 | 0 | 0.0 | 0.0 | 0.00 | 0.52 | 0.00 | 99 | 1018.4 |
| 20260905054554 | 69 | 0 | 0.0 | 0.0 | 0.00 | 0.52 | 0.00 | 99 | 1018.5 |
| 20260905054026 | 69 | 0 | 0.0 | 0.0 | 0.00 | 0.52 | 0.00 | 99 | 1018.7 |
| 20260905053526 | 69 | 0 | 0.0 | 0.0 | 0.00 | 0.52 | 0.00 | 99 | 1018.8 |
| 20260905053105 | 69 | 0 | 0.0 | 0.0 | 0.00 | 0.52 | 0.00 | 99 | 1018.9 |
| 20260905052527 | 69 | 0 | 0.0 | 0.0 | 0.00 | 0.52 | 0.00 | 99 | 1018.7 |
| 20260905052027 | 69 | 0 | 0.0 | 0.0 | 0.00 | 0.52 | 0.00 | 99 | 1018.8 |
| 20260905051547 | 69 | 0 | 0.0 | 0.0 | 0.00 | 0.52 | 0.00 | 99 | 1018.8 |
| 20260905051023 | 69 | 0 | 0.0 | 0.0 | 0.00 | 0.52 | 0.00 | 99 | 1018.8 |
| 20260905050526 | 69 | 0 | 0.0 | 0.0 | 0.00 | 0.52 | 0.00 | 99 | 1018.8 |
| 20260905050045 | 69 | 0 | 0.0 | 0.0 | 0.00 | 0.52 | 0.00 | 99 | 1019.0 |
| 20260905045525 | 69 | 0 | 0.0 | 0.0 | 0.00 | 0.52 | 0.00 | 99 | 1018.9 |
| 20260905045026 | 69 | 0 | 0.0 | 0.0 | 0.00 | 0.52 | 0.00 | 99 | 1018.9 |
| 20260905044546 | 69 | 0 | 0.0 | 0.0 | 0.00 | 0.52 | 0.00 | 99 | 1019.1 |
| 20260905044025 | 69 | 0 | 0.0 | 0.0 | 0.00 | 0.52 | 0.00 | 99 | 1018.9 |
| 20260905043525 | 69 | 0 | 0.0 | 1.0 | 0.00 | 0.52 | 0.00 | 99 | 1019.1 |
| 20260905043051 | 69 | 0 | 0.0 | 1.0 | 0.00 | 0.52 | 0.00 | 99 | 1019.0 |
| 20260905042522 | 68 | 0 | 0.0 | 1.0 | 0.00 | 0.52 | 0.00 | 99 | 1018.9 |
| 20260905042024 | 68 | 0 | 0.0 | 1.0 | 0.00 | 0.52 | 0.00 | 99 | 1018.9 |
| 20260905041546 | 68 | 0 | 0.0 | 1.0 | 0.00 | 0.52 | 0.00 | 99 | 1018.9 |
| 20260905041023 | 69 | 0 | 0.0 | 0.0 | 0.00 | 0.52 | 0.00 | 99 | 1018.8 |
| 20260905040525 | 69 | 0 | 0.0 | 0.0 | 0.00 | 0.52 | 0.00 | 99 | 1018.8 |
| 20260905040100 | 68 | 0 | 0.0 | 0.0 | 0.00 | 0.52 | 0.00 | 99 | 1018.9 |
| 20260905035526 | 68 | 0 | 0.0 | 0.0 | 0.00 | 0.52 | 0.52 | 99 | 1019.0 |
| 20260905035025 | 68 | 0 | 0.0 | 0.0 | 0.00 | 0.52 | 0.52 | 99 | 1019.1 |
| 20260905034552 | 68 | 0 | 0.0 | 0.0 | 0.00 | 0.52 | 0.52 | 99 | 1019.0 |
| 20260905034032 | 68 | 0 | 0.0 | 0.0 | 0.00 | 0.52 | 0.52 | 99 | 1019.0 |
| 20260905033530 | 68 | 0 | 0.0 | 0.0 | 0.00 | 0.52 | 0.52 | 99 | 1019.0 |
| 20260905033057 | 68 | 0 | 0.0 | 0.0 | 0.00 | 0.52 | 0.52 | 99 | 1019.0 |
| 20260905032529 | 68 | 0 | 0.0 | 0.0 | 0.00 | 0.52 | 0.52 | 99 | 1019.0 |
| 20260905032026 | 68 | 0 | 0.0 | 0.0 | 0.00 | 0.52 | 0.52 | 99 | 1018.9 |
| 20260905031557 | 69 | 0 | 0.0 | 0.0 | 0.00 | 0.52 | 0.52 | 99 | 1019.1 |
| 20260905031025 | 69 | 0 | 0.0 | 0.0 | 0.00 | 0.52 | 0.52 | 99 | 1018.9 |
| 20260905030525 | 69 | 0 | 0.0 | 0.0 | 0.00 | 0.52 | 0.52 | 99 | 1018.9 |
| 20260905030127 | 69 | 0 | 0.0 | 0.0 | 0.00 | 0.52 | 0.52 | 99 | 1018.9 |
| 20260905025522 | 69 | 0 | 0.0 | 0.0 | 0.00 | 0.71 | 0.52 | 99 | 1018.9 |
| 20260905025030 | 69 | 0 | 0.0 | 0.0 | 0.00 | 0.71 | 0.52 | 99 | 1019.0 |
| 20260905024632 | 69 | 0 | 0.0 | 0.0 | 0.00 | 0.71 | 0.52 | 99 | 1019.0 |
| 20260905024025 | 69 | 0 | 0.0 | 0.0 | 0.00 | 0.71 | 0.52 | 99 | 1019.0 |
| 20260905023524 | 69 | 0 | 0.0 | 0.0 | 0.00 | 0.71 | 0.52 | 99 | 1018.8 |
| 20260905023050 | 69 | 0 | 0.0 | 0.0 | 0.00 | 0.71 | 0.52 | 99 | 1018.8 |
| 20260905022524 | 69 | 0 | 0.0 | 0.0 | 0.00 | 0.71 | 0.52 | 99 | 1018.9 |
| 20260905022033 | 69 | 0 | 0.0 | 0.0 | 0.00 | 0.71 | 0.52 | 99 | 1018.8 |
| 20260905021546 | 69 | 0 | 0.0 | 0.0 | 0.00 | 0.71 | 0.52 | 99 | 1018.9 |
| 20260905021024 | 69 | 0 | 0.0 | 0.0 | 0.00 | 0.71 | 0.52 | 98 | 1018.9 |
| 20260905020526 | 69 | 0 | 0.0 | 0.0 | 0.00 | 0.71 | 0.52 | 98 | 1019.0 |
| 20260905020052 | 69 | 0 | 0.0 | 0.0 | 0.00 | 0.71 | 0.52 | 98 | 1018.9 |
| 20260905015523 | 69 | 0 | 0.0 | 1.0 | 0.00 | 1.41 | 0.52 | 98 | 1019.0 |
| 20260905015025 | 69 | 169 | 0.0 | 1.0 | 0.00 | 1.41 | 0.52 | 98 | 1018.8 |
| 20260905014547 | 69 | 0 | 0.0 | 0.0 | 0.00 | 1.41 | 0.52 | 98 | 1019.0 |
| 20260905014024 | 69 | 0 | 0.0 | 0.0 | 0.00 | 1.41 | 0.52 | 98 | 1018.8 |
| 20260905013526 | 69 | 0 | 0.0 | 0.0 | 0.00 | 1.41 | 0.52 | 98 | 1018.9 |
| 20260905013055 | 69 | 0 | 0.0 | 0.0 | 0.00 | 1.41 | 0.52 | 98 | 1018.8 |